Klawock, AK

3:45 AM AKST on November 21, 2017 (GMT -0900)
Klawock

Weather History for PAKW - February, 2014

Change the Weather History Date:

Friday, February 28, 2014

  Actual Average Record
Temperature  
Mean Temperature 39 °F -  
Max Temperature 48 °F 40 °F 55 °F (2005)
Min Temperature 30 °F 29 °F 12 °F (2011)
Degree Days  
Heating Degree Days 26    
Moisture  
Dew Point 21 °F    
Average Humidity 49    
Maximum Humidity 82    
Minimum Humidity 34    
Precipitation  
Precipitation 0.00 in - - ()
Sea Level Pressure  
Sea Level Pressure 29.89 in    
Wind  
Wind Speed 5 mph (NNE)    
Max Wind Speed 17 mph    
Max Gust Speed 24 mph    
Visibility 10 miles    
Events Snow    
Averages and records for this station are not official NWS values.
T = Trace of Precipitation, MM = Missing Value Source: NWS Daily Summary

Daily Weather History Graph

Daily Weather History Graph

Search for Another Location

Airport or City:

Trip Planner

Search our weather history database for the weather conditions in past years. The results will help you decide how hot, cold, wet, or windy it might be!

Date:

Astronomy

Feb. 28, 2014 Rise Set
Actual Time 6:45 AM AKST 5:25 PM AKST
Civil Twilight 6:08 AM AKST 6:02 PM AKST
Nautical Twilight 5:25 AM AKST 6:45 PM AKST
Astronomical Twilight 4:42 AM AKST 7:28 PM AKST
Moon 6:05 AM AKST (2/28) 5:15 PM AKST (2/28)
Length of Visible Light 11h 54m
Length of Day
10h 40m
Waning Crescent, 0% of the Moon is Illuminated
Feb 28
Waning Crescent
Feb 28
New
Mar 8
First Quarter
Mar 16
Full
Mar 23
Last Quarter

Hourly Weather History & Observations

Time (AKST) Temp. Windchill Dew Point Humidity Pressure Visibility Wind Dir Wind Speed Gust Speed Precip Events Conditions
12:53 AM 34.0 °F - 28.9 °F 82% 29.90 in 10.0 mi Calm Calm - N/A   Overcast
1:53 AM 34.0 °F 29.8 °F 28.9 °F 82% 29.90 in 10.0 mi South 4.6 mph - N/A   Overcast
3:53 AM 37.9 °F - 26.1 °F 62% 29.89 in 10.0 mi Calm Calm - N/A   Overcast
4:53 AM 37.9 °F - 24.1 °F 57% 29.89 in 10.0 mi Calm Calm - N/A   Clear
5:53 AM 36.0 °F - 24.1 °F 62% 29.89 in 10.0 mi Calm Calm - N/A   Clear
6:53 AM 30.9 °F - 25.0 °F 79% 29.89 in 10.0 mi Calm Calm - N/A   Clear
7:53 AM 36.0 °F 32.1 °F 24.1 °F 62% 29.90 in 10.0 mi NE 4.6 mph - N/A   Clear
8:53 AM 41.0 °F 39.0 °F 23.0 °F 49% 29.90 in 10.0 mi Variable 3.5 mph - N/A   Clear
9:53 AM 44.1 °F 37.1 °F 21.9 °F 42% 29.90 in 10.0 mi NNE 15.0 mph - N/A   Clear
10:53 AM 45.0 °F 38.5 °F 21.9 °F 40% 29.91 in 10.0 mi NNE 13.8 mph - N/A   Clear
11:53 AM 46.9 °F - 21.9 °F 37% 29.90 in 10.0 mi NNE 12.7 mph - N/A   Clear
12:53 PM 48.0 °F - 21.0 °F 34% 29.89 in 10.0 mi NNE 11.5 mph - N/A   Clear
1:53 PM 48.0 °F - 21.0 °F 34% 29.88 in 10.0 mi North 13.8 mph - N/A   Clear
2:53 PM 46.9 °F - 19.9 °F 34% 29.88 in 10.0 mi NNE 10.4 mph - N/A   Clear
3:53 PM 45.0 °F 39.7 °F 19.0 °F 36% 29.87 in 10.0 mi NNE 10.4 mph - N/A   Clear
4:53 PM 43.0 °F 40.3 °F 18.0 °F 37% 29.88 in 10.0 mi Variable 4.6 mph - N/A   Clear
5:53 PM 39.9 °F 36.7 °F 18.0 °F 41% 29.88 in 10.0 mi NE 4.6 mph - N/A   Clear
6:53 PM 37.0 °F 31.0 °F 19.0 °F 48% 29.88 in 10.0 mi NNE 8.1 mph - N/A   Clear
7:53 PM 37.0 °F 33.3 °F 18.0 °F 46% 29.88 in 10.0 mi NNE 4.6 mph - N/A   Clear
8:53 PM 37.0 °F 34.5 °F 12.9 °F 37% 29.89 in 10.0 mi Variable 3.5 mph - N/A   Clear
9:53 PM 35.1 °F 25.9 °F 14.0 °F 42% 29.89 in 9.0 mi NNE 13.8 mph - 0.00 in   Clear
10:53 PM 35.1 °F 27.9 °F 10.9 °F 37% 29.90 in 10.0 mi NNE 9.2 mph - 0.00 in   Clear
11:53 PM 35.1 °F 24.8 °F 10.9 °F 37% 29.89 in 9.0 mi NNE 17.3 mph 24.2 mph 0.00 in Snow Light Snow